This is the latest recevied weather packets stored in our database for station/object KI6SYE. If no packets are shown the sender has not sent any weather packets the latest 10 day(s).
| Time | Temp. | Humidity | Pressure | Rain* | Wind** | Luminosity | Snow |
|---|---|---|---|---|---|---|---|
| 1787840828 | 24.44° C | 91% | 1011.2 hPa | 0 mm | - | 34 W/m² | - |
| 1787840523 | 24.44° C | 91% | 1011.2 hPa | 0 mm | - | 26 W/m² | - |
| 1787840213 | 24.44° C | 91% | 1011.3 hPa | 0 mm | - | 20 W/m² | - |
| 1787839912 | 24.44° C | 91% | 1011.2 hPa | 0 mm | - | 19 W/m² | - |
| 1787839608 | 23.89° C | 90% | 1011.2 hPa | 0 mm | - | 18 W/m² | - |
| 1787839308 | 23.89° C | 90% | 1011.2 hPa | 0 mm | - | 19 W/m² | - |
| 1787839007 | 23.33° C | 90% | 1011.2 hPa | 0 mm | - | 20 W/m² | - |
| 1787838706 | 23.33° C | 90% | 1011.1 hPa | 0 mm | - | 19 W/m² | - |
| 1787838405 | 23.33° C | 90% | 1011.4 hPa | 0 mm | - | 16 W/m² | - |
| 1787838104 | 23.33° C | 90% | 1011.3 hPa | 0 mm | - | 13 W/m² | - |
| 1787837798 | 23.33° C | 90% | 1011 hPa | 0 mm | - | 10 W/m² | - |
| 1787837493 | 23.33° C | 90% | 1010.9 hPa | 0 mm | - | 5 W/m² | - |
| 1787837188 | 23.33° C | 90% | 1011.2 hPa | 0 mm | - | 2 W/m² | - |
| 1787836886 | 23.33° C | 91% | 1011.2 hPa | 0 mm | - | 1 W/m² | - |
| 1787836582 | 23.33° C | 91% | 1011.2 hPa | 0 mm | - | 1 W/m² | - |
| 1787836282 | 23.33° C | 91% | 1010.9 hPa | 0 mm | - | 0 W/m² | - |
| 1787835978 | 23.33° C | 92% | 1010.7 hPa | 0 mm | - | 0 W/m² | - |
| 1787835673 | 22.78° C | 92% | 1010.6 hPa | 0 mm | - | 0 W/m² | - |
| 1787835368 | 22.78° C | 93% | 1010.7 hPa | 0 mm | - | 0 W/m² | - |
| 1787835063 | 22.78° C | 93% | 1010.5 hPa | 0 mm | - | 0 W/m² | - |
| 1787834761 | 22.78° C | 93% | 1010.6 hPa | 0 mm | - | 0 W/m² | - |
| 1787834457 | 22.78° C | 93% | 1010.1 hPa | 0 mm | - | 0 W/m² | - |
| 1787834152 | 22.78° C | 94% | 1010.6 hPa | 0 mm | - | 0 W/m² | - |
| 1787833848 | 22.78° C | 94% | 1010.5 hPa | 0 mm | - | 0 W/m² | - |
| 1787833543 | 22.78° C | 94% | 1010.7 hPa | 0 mm | - | 0 W/m² | - |
* Rain latest hour (hover to see other rain measurements)
** Current wind speed in m/s (hover to see current wind gust speed)